Погода в Дубовичьем

Россия / Рязанская область     54°26′16″N   40°08′04″E
темп.,
°C
ветер,
м/с
пор.,
м/с
влажн.,
%
обл.,
%
осадки,
мм/ч
давл.,
гПа
погр.,
м
17 мая, пн
пн1700:00+15всв338387 0.0 101440
03:00+14всв358849 0.0 101477
06:00+16всв379356 0.0 1014182
09:00+21в567894 0.0 1013410
12:00+25вюв566435 0.0 1013640
15:00+27юв595978 0.0 10121453
18:00+23вюв41171100 0.0 1012341
21:00+18вюв4128480 0.0 1012191
18 мая, вт
вт1800:00+17вюв4137777 0.0 1012216
03:00+15вюв413709 0.0 1011234
06:00+15вюв414755 0.0 1011275
09:00+21юв5116485 0.0 1012475
12:00+25юв5105791 0.0 1011770
15:00+26вюв611555 0.0 1010849
18:00+23вюв716655 0.0 1009599
21:00+19вюв5167660 0.0 1010348
19 мая, ср
ср1900:00+18вюв515691 0.0 1009326
03:00+15юв397412 0.0 1010141
06:00+15вюв3118155 0.0 1010270
09:00+21юв58653 0.0 1010543
12:00+24ююв595885 0.0 1010944
15:00+25юв41162100 0.0 10101296
18:00+23юв4117268 0.0 1009407
21:00+19в4138127 0.0 1009267
20 мая, чт
чт2000:00+20вюв7187499 0.0 1008698
03:00+16в5158489 1.3 1007360
06:00+15в61293100 2.1 1007379
09:00+20юв8128161 2.1 10071144
12:00+20ююв8107556 0.8 10081133
15:00+20ююв71071100 1.4 10091284
18:00+18ююв61176100 0.3 1009989
21:00+15ююв4118817 0.3 1011368
21 мая, пт
пт2100:00+13ю411946 0.0 1011312
03:00+11ю38975 0.0 1012174
06:00+13ююв499381 0.0 1012277
09:00+16ю71179100 0.1 1012940
12:00+14ююв51291100 0.9 1012846
15:00+18ююз7137589 1.8 10111676
18:00+16юз611800 1.2 10121091
21:00+11зюз6118550 1.3 1014566